Wind_Speed
18 16 15 13 10 9 9 8 8 9 9 8 8 8 9 10 11 8 5 6 6 7 10 7 6 7 5 4 5 12 15 14 11 9 10 11 12 11 10 10 10 10 10 10 10 9 9 9 9 8 9 10 10 10 10 10 10 11 11 11 11 12 11 11 12 12 12 12 12 12 12 12 12 13 13 13 14 14 14 15 15 16 16 16 17
18 16 16 14 11 10 10 9 8 8 7 5 6 6 6 9 10 7 6 7 6 8 10 8 6 7 5 4 6 13 16 13 9 8 11 12 12 11 10 11 11 10 10 9 9 8 8 8 8 9 9 9 9 9 9 9 10 11 11 11 12 12 12 12 12 12 12 12 12 12 12 12 12 12 12 13 13 13 14 14 14 14 15 16 16
18 17 17 15 12 12 12 11 9 9 8 6 7 7 6 8 8 7 7 5 6 10 10 8 5 5 4 5 9 12 13 11 8 9 11 12 11 11 10 11 11 10 9 9 8 8 9 9 9 9 9 8 9 9 10 10 10 11 11 11 12 12 12 12 12 12 13 13 13 13 13 13 13 13 12 12 13 13 13 13 13 14 14 15 15
18 18 17 15 13 12 12 11 10 10 10 9 10 9 7 8 7 7 6 3 8 12 9 7 6 7 8 9 10 12 11 10 9 10 11 11 11 10 10 11 11 10 9 9 9 9 9 9 9 10 11 11 12 12 12 12 12 12 12 12 13 13 13 13 13 13 13 13 13 13 14 14 14 14 13 13 13 13 13 13 13 13 13 13 14
18 17 17 15 13 12 11 11 11 11 10 10 11 10 8 8 8 6 5 7 12 13 9 8 8 10 12 13 12 12 12 12 11 11 11 12 12 11 10 11 11 10 10 12 13 12 10 10 11 12 13 14 14 14 15 15 14 14 14 14 14 14 14 15 15 15 15 15 15 15 15 16 16 16 16 15 14 14 13 13 12 12 12 12 13
19 18 17 15 13 12 12 12 12 11 10 11 11 11 8 8 8 6 7 9 12 13 10 8 8 11 14 13 12 11 11 12 12 11 12 12 13 12 11 10 10 10 11 14 14 13 11 11 12 12 13 13 13 13 14 14 14 14 14 13 12 12 13 13 13 14 14 14 15 15 16 16 16 16 16 16 16 16 15 15 14 13 12 12 12
19 18 17 16 14 14 13 11 11 11 10 11 12 11 9 8 8 7 9 10 12 14 11 9 9 11 14 12 9 9 10 10 11 12 13 14 14 13 12 11 9 9 12 16 15 13 12 10 9 9 10 10 10 11 11 12 13 13 12 11 11 11 11 11 11 11 11 11 10 11 12 12 12 12 12 13 14 15 15 16 16 16 14 12 11
18 17 15 15 15 15 13 10 11 12 10 11 12 10 10 9 6 7 9 10 13 16 14 12 11 11 13 12 10 10 11 11 11 13 14 14 16 15 13 12 9 7 13 17 15 13 11 8 7 6 7 7 7 8 9 10 11 11 10 10 9 9 9 9 9 8 8 8 7 7 8 8 7 7 7 9 10 11 13 15 16 16 16 13 11
17 17 15 15 15 15 14 11 11 12 10 11 11 9 9 9 7 6 8 9 13 17 17 14 12 11 12 13 12 11 12 12 12 13 15 16 17 17 14 13 10 8 12 15 14 13 9 7 6 6 6 6 5 5 6 7 8 9 9 8 8 8 7 7 6 6 5 5 5 5 5 5 4 3 3 4 5 7 10 12 14 14 14 13 11
17 17 15 15 15 15 15 12 11 11 11 10 9 9 8 9 9 7 7 10 14 17 17 16 15 13 11 12 12 12 12 12 13 12 13 15 17 17 15 14 12 9 11 14 13 11 8 7 5 4 5 5 5 4 5 5 6 7 7 7 7 6 5 4 4 4 4 4 3 4 5 4 3 3 3 3 4 5 7 10 11 11 12 12 11
17 16 15 15 14 15 15 13 11 11 12 10 9 9 9 10 10 9 9 11 14 17 17 18 19 16 12 11 13 15 13 12 12 12 12 14 17 18 16 15 14 12 12 13 11 8 7 6 4 4 5 5 5 4 4 4 5 6 7 7 7 5 4 3 4 4 5 4 4 5 5 5 5 5 5 4 4 4 5 7 8 9 12 12 10
16 16 15 14 14 14 14 14 12 12 12 11 10 10 11 11 10 11 12 13 15 17 16 18 21 18 14 13 13 13 12 11 12 12 12 13 15 18 16 15 16 14 12 12 10 8 6 6 5 5 5 6 5 5 5 4 5 6 6 7 7 6 5 6 6 7 8 8 8 8 8 8 9 8 8 7 6 5 5 5 6 9 11 10 10
15 15 13 13 13 13 14 15 14 13 13 11 10 11 12 12 11 11 12 14 16 17 18 21 22 18 15 14 12 10 10 11 11 12 13 13 14 17 16 15 16 14 13 12 10 8 7 7 7 6 6 6 6 6 6 6 6 7 7 8 9 9 9 10 10 9 10 10 11 11 11 11 11 11 11 10 9 7 7 6 6 8 9 9 10
14 14 12 11 12 13 17 16 14 14 13 11 11 13 13 13 13 12 11 14 16 17 18 17 16 15 14 11 8 8 8 9 10 11 13 13 13 16 16 16 16 14 13 12 10 8 8 9 9 7 7 7 7 7 7 8 9 9 10 11 12 12 12 11 10 10 10 11 12 11 11 10 10 11 10 10 10 9 7 7 7 9 10 10 11
15 14 13 12 12 15 18 17 15 15 14 12 13 13 13 12 14 14 14 15 15 16 16 11 12 17 14 7 3 4 5 5 7 9 11 11 12 14 15 15 14 12 12 12 11 9 9 10 10 8 7 7 7 8 10 11 12 12 13 13 13 13 12 10 10 11 12 12 12 11 10 9 8 9 9 11 13 11 10 10 10 11 11 11 11
16 15 15 15 16 18 17 17 16 14 14 14 14 14 13 12 13 14 15 17 17 16 13 11 15 17 9 3 2 3 2 3 5 6 9 10 10 13 14 14 14 12 11 11 11 11 10 11 11 10 8 8 9 11 13 13 14 15 15 14 12 11 10 10 11 11 12 12 12 11 10 9 9 9 10 13 16 15 14 14 14 14 12 11 10
18 18 18 16 16 17 15 16 16 14 14 14 14 14 14 13 13 14 15 16 17 16 12 13 18 15 8 5 4 1 2 5 6 4 6 8 8 11 13 13 13 12 12 12 13 12 12 13 14 12 11 11 12 13 14 14 14 14 14 13 12 11 11 11 11 11 11 12 12 12 11 10 10 11 12 14 16 16 17 17 16 15 12 9 9
19 19 18 16 16 15 14 15 17 15 14 14 14 13 13 14 14 14 14 14 16 16 14 15 15 12 9 8 5 4 8 10 5 2 3 6 7 9 11 12 12 12 13 14 13 12 12 13 14 14 14 14 13 13 13 13 12 12 12 12 11 11 11 11 11 11 11 11 12 12 12 11 12 13 13 14 15 16 16 15 14 12 9 8 8
17 16 16 15 17 16 14 16 17 16 14 13 14 13 13 14 14 14 14 13 15 17 16 15 14 11 9 7 4 8 18 14 6 4 3 3 6 8 10 11 12 12 12 13 13 12 12 15 16 16 15 14 13 12 12 12 11 11 11 11 11 11 12 13 12 12 12 11 11 12 12 12 13 13 14 14 15 15 14 13 11 10 9 8 8
14 15 16 15 17 17 16 15 15 15 15 14 13 13 14 15 14 13 13 12 13 16 18 16 15 13 10 8 5 12 18 12 11 13 5 2 5 5 8 10 11 12 12 13 14 13 14 16 17 16 15 13 12 11 12 12 12 12 11 10 10 10 12 13 13 12 12 11 11 11 11 12 12 13 14 14 15 15 14 13 12 11 10 10 10
13 16 17 16 17 17 17 16 13 14 16 15 14 14 13 14 15 14 13 13 13 15 16 16 15 14 13 11 10 13 13 10 14 16 8 5 4 3 7 8 7 10 12 13 14 13 14 16 16 15 14 13 11 11 12 12 12 12 10 10 10 11 12 12 12 12 11 11 11 11 11 11 12 12 13 14 14 14 14 14 13 12 11 11 11
16 17 16 14 15 16 16 16 14 14 15 15 15 14 13 13 15 15 14 13 14 14 15 14 13 14 15 14 14 14 12 9 12 13 10 8 5 5 10 10 7 9 12 13 13 13 14 15 16 15 14 12 11 11 11 11 12 12 10 10 11 11 11 11 11 11 11 12 12 12 12 12 12 12 13 13 14 14 14 13 13 12 11 11 11
18 18 16 15 15 15 14 14 13 13 13 13 14 13 13 14 15 15 15 13 13 14 14 15 14 13 15 16 17 17 15 12 14 16 13 9 7 7 10 12 11 13 14 13 13 15 16 16 17 17 15 12 10 9 9 10 12 12 12 12 11 11 10 10 11 11 12 12 11 11 11 11 12 12 12 12 13 13 13 13 13 13 12 11 11
20 18 17 16 15 15 14 14 14 13 12 13 14 13 13 14 15 15 14 12 13 14 14 15 15 14 14 15 16 17 15 15 18 19 17 17 15 10 10 14 10 11 16 15 14 17 19 19 19 18 14 10 8 7 9 11 12 13 13 12 11 10 10 11 11 11 11 11 11 11 10 10 10 11 11 11 11 12 12 12 12 12 12 12 12
20 19 18 16 16 16 14 14 16 13 11 13 14 13 13 13 15 15 14 13 12 13 14 14 15 14 14 15 15 14 13 13 17 18 17 22 22 13 13 16 11 12 16 15 16 18 19 19 17 16 14 10 7 6 9 12 14 14 14 13 12 11 11 12 11 11 10 10 11 10 10 10 10 10 10 10 10 10 10 10 11 11 11 12 12
20 19 18 18 17 16 15 14 16 14 12 14 14 13 13 12 14 15 15 14 13 12 13 13 13 12 13 15 15 14 12 13 16 17 18 23 23 18 15 13 11 13 13 14 17 17 16 17 16 15 12 10 8 7 10 13 14 14 14 14 14 13 13 12 11 11 11 10 10 10 10 11 11 11 11 10 10 10 10 10 10 10 10 10 10
19 19 19 19 18 17 16 14 15 15 14 15 14 14 14 12 14 14 14 15 14 13 13 12 12 12 12 14 14 13 13 14 15 16 18 23 25 25 20 11 7 9 9 12 16 17 18 18 17 17 14 10 8 9 12 15 15 15 15 15 15 15 13 12 11 11 11 10 10 10 10 10 11 11 10 10 10 9 9 9 8 8 8 8 9
20 19 19 19 18 18 17 14 15 16 14 14 14 15 15 14 15 15 14 14 14 13 13 13 13 12 12 13 14 14 15 15 16 14 16 22 25 25 25 17 10 6 6 8 10 12 19 20 15 15 15 10 8 11 14 15 15 15 15 15 16 15 13 11 11 11 11 10 10 10 10 10 10 10 9 9 8 8 8 7 7 6 6 6 6
21 19 18 17 18 18 17 16 16 15 14 13 13 14 14 14 14 14 13 12 12 13 12 13 14 12 12 13 13 14 14 14 16 15 15 20 24 22 22 23 18 9 5 5 6 9 18 22 18 14 15 11 9 13 16 15 15 15 15 15 16 15 14 12 11 12 11 10 9 9 9 9 8 8 8 8 7 7 6 6 5 5 4 4 4
21 19 18 18 18 17 17 17 16 14 14 13 13 13 12 12 12 13 13 12 11 12 11 11 14 13 12 13 12 13 13 12 15 16 16 19 22 20 17 21 22 16 11 7 5 12 20 21 19 17 17 14 11 15 16 14 14 15 15 15 15 15 14 13 12 12 11 10 9 9 8 8 8 7 7 7 6 6 5 4 4 3 3 2 2
22 20 19 18 17 17 17 17 16 15 13 11 13 14 11 10 11 11 13 12 11 11 11 10 12 13 13 13 13 13 12 12 14 16 17 17 19 19 15 15 16 14 17 13 5 13 24 23 19 19 18 15 14 15 16 14 14 14 15 14 15 15 15 14 14 13 12 11 9 9 8 7 7 6 6 5 5 4 4 3 2 2 1 1 0
22 20 19 18 17 17 17 16 16 15 12 11 13 13 10 10 10 10 12 12 11 12 11 10 10 12 14 14 14 14 12 13 14 16 17 16 17 19 16 14 11 6 15 20 11 11 22 24 21 19 17 17 15 16 16 15 14 14 14 14 14 16 16 16 15 14 13 12 10 10 8 7 6 5 4 4 3 3 2 1 1 0 1 1 1
22 20 19 18 16 15 16 16 15 14 12 11 12 12 11 10 10 10 10 11 11 11 11 10 10 12 13 13 14 14 12 12 15 16 17 15 15 17 15 15 11 5 13 24 17 12 18 22 21 20 18 18 16 16 17 17 17 16 14 13 14 15 16 17 16 15 14 13 12 11 9 8 7 6 5 4 3 2 1 1 2 2 3 3 3
21 19 18 19 16 15 16 15 15 14 11 10 11 12 11 9 10 11 10 11 11 11 11 11 11 11 11 11 14 14 12 12 14 15 16 15 14 16 16 15 12 7 12 21 19 16 18 21 22 22 21 19 17 17 19 18 17 18 16 14 14 15 16 16 16 16 15 15 14 12 11 10 8 7 7 6 6 5 5 4 4 5 5 5 5
20 18 18 18 16 16 16 14 14 13 11 10 10 11 10 8 10 11 9 10 11 11 13 12 12 12 10 10 13 14 12 11 13 13 14 15 14 16 16 15 15 9 9 17 19 19 21 22 24 25 23 20 17 17 18 17 16 17 17 16 15 15 16 17 17 17 17 16 16 14 13 12 11 10 10 10 9 9 8 8 8 7 7 7 8
20 19 18 18 16 16 15 13 14 14 12 11 9 10 10 9 10 9 7 9 11 11 12 11 12 13 11 11 13 14 13 12 12 12 13 13 13 15 16 15 16 11 9 17 22 22 24 23 24 26 24 21 18 17 18 18 17 17 17 16 16 17 17 18 19 19 19 19 18 17 16 15 14 13 13 13 13 12 12 11 11 10 10 10 10
20 19 18 16 16 15 14 14 15 14 12 10 9 9 10 8 8 7 7 9 10 9 8 8 12 13 11 11 12 13 14 13 12 11 12 13 12 14 14 15 17 13 10 17 22 23 27 27 25 25 23 21 20 19 21 21 20 20 20 19 19 18 19 20 20 20 19 19 20 20 19 19 18 17 16 16 16 16 15 15 14 14 13 13 13
20 20 18 16 15 14 14 16 17 14 11 9 8 10 10 8 8 8 7 8 9 9 8 9 12 12 9 8 8 10 13 14 13 11 12 13 14 14 13 15 16 13 12 19 23 24 27 28 27 26 24 23 21 21 23 24 23 23 24 24 23 21 21 22 22 20 19 20 21 22 23 23 22 20 19 18 18 18 18 18 18 17 17 16 16
21 21 18 16 15 13 15 19 17 14 12 9 8 11 11 9 8 9 9 8 9 8 8 10 12 10 7 5 5 8 11 12 13 10 10 13 15 14 13 14 13 10 15 23 25 25 26 25 25 25 25 24 22 22 24 26 25 24 24 26 26 25 25 25 26 25 24 24 24 24 25 25 25 23 21 20 20 21 21 21 21 21 20 20 19
21 21 17 16 16 15 17 19 18 16 13 10 10 12 11 9 9 10 9 8 8 9 9 9 10 9 6 4 4 6 9 12 12 9 8 12 14 11 10 12 11 11 19 25 24 24 25 23 22 23 25 25 23 22 21 25 27 25 25 27 27 27 26 26 28 28 28 28 27 27 27 27 27 26 24 23 23 23 23 24 24 24 23 22 21
19 18 17 16 17 18 20 20 19 17 15 13 12 11 10 11 10 9 8 6 6 7 8 8 8 7 7 6 5 6 9 10 10 7 6 9 10 7 6 9 12 14 19 21 22 24 24 22 21 21 22 24 24 22 20 24 28 27 27 29 28 27 26 27 29 30 31 32 30 30 30 28 28 28 27 27 26 25 24 24 24 24 23 23 23
18 17 17 17 19 21 22 21 20 18 16 14 14 12 12 12 11 8 7 6 4 3 5 8 10 9 8 8 8 8 9 9 8 7 7 7 6 6 6 7 9 12 13 12 14 19 19 17 18 18 19 22 25 25 23 24 25 26 28 30 30 28 26 26 27 29 32 33 32 32 32 30 30 30 30 30 28 26 25 24 24 23 22 22 22
18 17 19 21 22 22 22 20 19 18 16 14 13 13 12 12 11 9 6 6 6 3 2 7 10 11 10 9 9 8 8 8 7 6 6 6 5 5 6 7 7 8 8 7 6 7 7 7 8 10 13 17 21 24 26 26 24 23 23 27 31 31 27 23 21 23 28 31 32 33 32 31 31 33 33 32 31 28 27 25 23 22 21 21 21
21 19 21 23 23 21 20 19 18 16 15 13 12 12 12 12 12 9 7 5 5 4 5 7 11 12 12 12 11 10 9 7 7 6 5 4 3 3 3 4 3 3 3 2 1 1 0 1 1 1 3 5 8 12 17 20 21 20 18 19 25 28 28 26 24 23 24 26 29 33 33 32 32 34 35 33 32 30 27 25 24 22 22 21 22
24 23 23 22 21 20 18 17 16 15 13 12 11 11 10 11 12 10 8 6 4 5 9 11 11 12 13 15 14 12 10 8 7 6 5 3 2 2 1 1 2 2 2 4 4 5 6 7 7 6 4 4 5 5 4 6 11 15 18 22 26 28 27 26 26 26 24 23 26 32 34 33 33 35 36 35 33 31 28 25 24 24 23 22 22
24 23 22 21 21 19 17 16 16 15 13 11 10 10 9 9 9 9 9 10 9 11 14 15 13 11 12 14 14 12 9 8 6 5 5 4 3 2 1 1 1 1 2 3 5 7 9 10 12 13 12 11 12 11 9 9 11 12 14 18 21 23 25 26 28 29 26 24 25 27 29 31 34 36 37 36 34 32 28 25 25 25 24 24 23
24 23 21 21 21 19 17 16 15 14 13 11 9 9 8 8 8 8 8 10 11 12 13 13 14 14 12 13 14 12 8 7 6 5 5 5 4 3 3 3 2 1 1 2 4 7 9 10 11 13 14 13 13 14 13 15 16 16 16 16 16 17 20 22 25 26 25 26 26 25 24 26 29 33 35 35 34 33 30 26 25 26 26 25 24
25 23 22 21 20 20 18 15 15 15 13 11 10 9 9 9 9 8 8 8 9 10 11 12 13 15 14 12 12 11 8 8 7 6 6 5 5 5 4 3 3 1 1 2 4 6 7 9 10 11 13 13 13 14 14 15 16 18 19 20 19 20 20 20 21 23 24 23 20 20 18 15 15 20 23 24 25 26 26 25 26 27 28 28 25
23 22 21 20 19 19 17 15 15 16 14 12 11 10 10 10 10 10 10 11 13 13 13 13 13 14 13 11 10 10 8 8 8 6 4 3 2 3 1 0 1 1 1 3 4 5 6 7 8 9 12 13 14 16 16 17 18 18 20 21 21 21 19 16 15 18 19 16 14 15 16 13 12 15 15 15 16 18 20 23 27 29 31 30 26
23 22 21 21 20 19 18 17 15 15 15 14 11 10 10 9 10 12 14 16 17 16 14 14 13 13 12 10 9 8 8 8 7 5 4 3 3 4 4 4 5 5 6 7 8 9 10 10 10 11 13 14 16 17 18 19 20 20 22 23 23 23 21 16 15 17 21 22 20 17 17 20 20 19 16 15 16 20 24 27 29 31 33 30 26
23 22 20 21 21 19 18 18 16 15 15 14 12 10 10 8 8 11 14 18 20 18 15 13 13 12 12 11 10 9 8 8 7 7 7 6 7 7 8 9 10 10 11 13 14 16 17 17 17 18 18 18 19 20 20 21 21 21 21 22 22 22 21 20 20 19 17 19 21 17 16 19 20 20 20 16 13 16 23 27 28 32 32 29 27
Wind_Direction
167 164 161 156 156 158 153 146 144 151 156 152 147 150 158 161 160 161 178 185 171 186 196 199 220 212 192 184 121 105 119 122 112 107 101 103 107 107 112 118 123 118 116 116 112 111 110 112 112 108 105 107 110 106 104 104 102 101 97 98 99 98 97 96 96 94 92 91 88 89 89 87 85 85 84 81 79 77 78 77 77 78 75 72 66
169 166 162 163 172 178 181 184 180 175 170 168 172 167 167 167 167 176 181 185 190 185 191 208 228 214 192 177 131 111 126 137 135 125 109 108 114 116 116 114 115 113 114 117 118 119 116 113 111 105 101 102 106 107 109 109 106 103 102 102 100 98 98 96 96 94 92 90 88 88 88 87 86 87 86 85 84 80 79 78 79 80 77 76 74
173 170 168 171 181 186 187 191 194 188 179 176 179 177 176 170 172 186 187 195 192 176 188 211 206 193 173 143 134 126 137 153 152 134 116 114 122 124 123 118 118 120 124 129 125 116 109 107 107 108 109 108 106 104 105 105 103 103 103 102 100 99 99 97 95 93 91 89 87 86 85 85 86 86 86 86 87 85 84 81 79 80 78 78 77
179 177 175 178 180 181 182 184 183 179 178 176 175 176 175 174 181 189 185 163 148 157 179 193 166 141 120 109 134 152 161 165 157 141 127 125 129 130 131 128 129 134 135 130 121 110 106 107 108 109 109 106 101 98 99 101 103 105 105 104 102 100 98 97 97 96 94 91 89 88 86 85 84 85 84 83 83 84 85 83 82 80 78 78 79
183 181 179 177 173 175 177 178 177 175 179 180 176 174 171 173 187 187 162 137 130 139 158 166 154 140 124 108 125 158 173 168 159 151 142 138 137 137 140 138 140 143 133 122 116 112 112 112 109 107 105 104 102 99 100 101 104 107 107 106 102 100 97 96 96 96 94 93 91 88 86 84 82 81 80 79 79 79 80 79 80 81 78 78 78
181 180 180 176 170 171 175 178 178 178 180 182 177 171 166 166 182 183 155 143 127 129 146 152 153 146 134 127 132 158 178 167 160 161 156 150 146 143 143 144 146 146 134 126 123 121 126 125 117 114 110 108 107 105 107 110 111 111 108 108 108 105 100 95 94 93 90 89 89 86 81 77 74 72 72 74 76 77 78 76 74 72 72 74 75
180 179 179 176 171 167 171 178 179 180 180 178 175 171 171 168 176 174 149 141 127 127 138 140 142 138 128 135 159 181 187 175 169 170 167 159 155 153 147 144 145 145 141 136 132 137 145 141 127 125 123 120 118 115 117 118 120 119 113 115 117 112 105 97 94 91 87 83 82 83 79 73 70 68 67 68 69 73 74 74 71 66 64 65 70
181 182 181 178 176 166 162 171 174 178 178 173 175 176 179 170 167 172 150 136 129 126 129 131 132 130 123 130 157 172 176 176 175 172 172 168 164 162 153 147 145 142 147 144 141 147 150 138 123 120 123 130 134 132 133 131 130 128 122 122 122 117 110 102 98 95 91 85 78 77 76 75 74 76 77 73 70 71 71 70 67 63 59 56 62
184 186 184 178 177 166 157 163 170 173 174 174 179 182 186 177 162 170 160 145 142 132 126 130 129 124 127 133 146 164 171 170 171 170 174 174 170 168 159 155 156 143 147 149 146 148 144 131 124 117 117 124 136 145 151 151 146 138 132 128 120 114 111 102 100 99 97 101 93 77 69 69 69 65 80 92 87 81 77 72 64 61 58 51 55
188 189 186 180 176 167 159 164 173 173 173 179 189 184 181 179 162 153 154 150 151 141 129 128 124 123 134 140 146 159 163 162 166 168 170 171 170 171 166 161 163 154 148 151 149 145 141 135 130 125 121 115 122 135 145 155 154 148 148 146 134 121 116 107 98 91 97 109 92 62 55 65 67 48 58 97 111 104 90 78 68 63 65 58 51
190 189 185 183 182 173 163 166 179 179 177 181 189 183 171 168 157 140 137 140 144 143 135 126 119 124 136 136 135 141 147 154 165 168 167 169 168 171 171 165 166 163 156 158 155 149 146 139 132 133 131 125 127 128 129 135 139 146 156 159 155 143 129 120 103 87 91 95 82 72 69 75 76 65 69 82 99 128 127 96 78 72 74 66 52
188 187 181 181 185 176 166 173 184 180 178 182 184 179 167 161 156 146 140 138 139 142 142 131 120 121 125 123 124 129 138 152 165 167 163 166 169 172 173 166 166 166 162 165 162 157 152 140 135 133 132 135 135 127 124 126 129 138 143 142 144 141 124 113 102 91 92 92 90 90 86 84 82 78 82 82 81 108 134 126 102 87 79 68 58
188 187 179 178 181 174 173 183 184 176 176 182 182 173 164 157 151 151 149 144 143 145 145 134 122 119 119 117 116 115 126 145 155 157 155 157 164 170 170 164 164 166 167 170 165 155 148 139 133 125 122 124 121 120 124 125 126 125 124 124 128 125 114 107 102 98 100 99 95 93 89 87 84 82 84 85 85 95 115 136 134 106 91 74 69
187 187 177 173 180 179 182 184 178 176 178 178 179 174 169 165 154 151 155 151 151 153 151 140 128 130 126 115 108 102 107 128 140 147 152 154 157 164 167 163 164 168 169 170 165 153 148 143 132 119 115 112 109 116 125 126 123 120 120 121 120 116 110 106 106 106 107 106 102 96 93 91 87 82 82 82 85 90 104 121 132 123 106 85 75
188 193 181 172 189 191 184 182 177 180 183 177 179 179 175 175 165 156 155 151 154 162 163 157 144 137 129 122 131 112 94 108 128 139 151 156 156 161 166 165 166 168 164 162 157 147 144 148 141 129 120 112 113 120 126 124 120 119 119 116 113 111 109 109 109 108 106 106 105 102 99 93 88 87 82 79 79 83 96 109 121 124 107 85 79
187 197 191 181 194 196 186 184 182 185 189 180 178 180 176 176 170 164 163 154 152 163 173 174 158 147 135 122 146 140 122 123 118 127 151 158 158 160 163 163 162 162 157 155 151 142 141 148 147 140 128 118 122 128 128 126 122 120 118 115 114 112 111 110 107 104 103 104 105 107 105 95 90 91 87 87 87 86 94 104 112 115 106 94 90
188 195 195 188 192 194 190 191 189 187 190 184 179 180 180 179 171 169 175 167 159 160 164 170 168 164 158 143 142 151 165 151 132 118 149 155 158 162 160 159 159 157 152 148 146 140 139 147 149 142 130 125 128 130 130 129 127 125 123 121 120 118 113 109 105 104 103 104 104 103 101 95 93 93 89 93 98 97 98 104 110 112 110 102 91
190 194 192 189 192 196 193 194 193 190 192 191 186 182 180 181 177 174 178 178 173 165 159 165 171 176 175 169 203 217 163 153 147 111 140 153 157 158 156 155 156 152 146 144 144 140 138 146 150 144 137 135 135 134 132 132 131 129 128 128 125 119 111 105 103 103 104 104 101 98 96 96 95 92 89 90 97 103 106 109 111 110 104 94 84
189 193 191 190 195 197 190 191 195 195 195 191 187 186 181 181 184 183 180 178 180 174 168 171 173 178 177 168 228 197 162 154 159 149 137 159 159 156 160 158 154 150 146 145 145 144 147 149 149 147 148 147 142 139 137 134 133 132 130 131 129 125 120 117 115 111 110 107 102 100 99 99 99 97 96 94 95 102 108 109 107 104 99 96 95
186 190 193 192 194 193 188 191 198 196 191 184 183 186 184 183 184 185 183 178 181 180 173 173 176 175 169 150 150 171 166 162 162 153 134 138 151 152 166 163 159 158 154 154 153 153 155 154 153 154 157 156 151 147 145 141 137 134 132 131 129 129 129 128 126 122 117 113 109 107 106 105 105 103 102 101 100 101 103 104 105 104 103 102 101
188 190 190 191 190 189 187 190 194 188 186 185 184 186 188 189 185 180 182 177 179 183 175 175 181 175 167 157 152 162 172 174 160 151 141 148 150 144 163 165 169 167 159 158 162 161 157 155 158 162 162 162 163 156 153 149 142 136 133 133 132 131 133 132 131 130 125 121 117 112 110 107 105 104 103 103 104 104 104 104 105 105 104 103 100
188 187 185 186 186 186 187 187 186 183 183 183 182 185 187 186 180 175 177 176 176 183 181 181 186 181 172 168 164 163 165 166 161 156 149 148 142 149 164 166 167 171 166 163 168 172 167 157 155 161 164 162 163 161 159 154 143 138 135 135 136 135 137 138 137 136 132 128 123 118 114 110 106 103 99 99 101 102 104 105 105 104 104 103 100
181 179 179 179 176 176 180 179 178 180 183 180 178 182 180 176 174 172 175 177 176 180 184 181 181 182 182 181 176 171 168 172 170 161 154 149 139 147 165 164 161 170 174 170 170 176 178 171 163 164 166 161 158 162 164 156 145 140 138 138 139 140 142 143 142 139 135 132 128 124 122 116 112 109 105 103 103 103 103 103 103 102 99 96 94
174 173 173 173 170 170 174 176 175 178 182 179 178 179 176 173 173 172 174 178 177 175 177 178 178 181 190 192 185 182 183 183 175 167 165 161 149 148 161 156 156 172 172 167 164 164 166 169 170 171 172 167 162 164 166 160 150 143 142 142 144 146 147 144 142 139 135 132 130 128 126 121 116 115 113 113 114 113 111 108 108 107 103 99 95
169 170 170 170 170 170 172 174 174 174 171 170 174 179 178 175 172 173 176 178 179 176 172 176 181 182 188 188 184 188 193 189 181 175 172 161 150 148 161 159 161 172 173 171 162 156 160 167 173 176 179 180 172 173 175 164 153 149 148 148 150 150 147 144 140 137 134 132 130 129 126 123 119 117 118 119 119 120 118 114 113 111 109 106 103
172 172 171 169 169 169 169 170 171 170 165 165 170 174 175 173 170 173 178 180 180 177 173 176 182 185 186 182 183 189 188 181 178 174 171 165 157 155 160 161 164 166 173 178 167 158 161 171 181 183 187 195 194 191 183 169 159 157 157 156 155 154 150 147 144 140 136 133 130 129 126 123 120 119 118 119 120 119 119 117 114 111 107 103 101
172 172 173 172 169 168 168 169 170 169 167 170 172 171 169 167 168 172 176 179 179 174 174 178 181 186 188 186 188 189 181 175 178 179 177 174 168 163 162 157 158 164 170 177 176 171 162 162 177 189 192 199 203 194 182 174 168 164 165 163 159 156 154 151 149 146 142 139 135 131 127 122 118 116 114 114 115 114 114 113 111 110 105 100 96
168 167 167 168 167 166 168 167 165 166 169 173 174 172 172 169 168 172 174 178 181 178 178 183 183 186 189 187 187 186 183 179 181 184 181 177 172 170 169 166 159 159 165 174 181 175 164 159 165 184 193 191 189 187 183 179 175 170 170 168 163 160 159 157 155 153 149 145 142 135 128 122 116 113 110 107 106 105 104 104 103 103 102 98 95
172 170 166 165 164 164 166 164 161 164 168 167 167 167 170 168 165 169 173 176 180 180 184 187 184 187 190 187 185 184 184 184 183 184 184 178 174 175 179 179 173 160 150 178 182 159 162 168 166 172 188 187 179 183 185 184 180 175 175 173 169 166 164 165 163 160 158 152 146 138 129 124 118 113 109 103 100 98 97 98 97 98 99 97 93
172 172 168 164 165 165 163 159 157 159 161 164 171 166 161 163 163 166 170 172 177 180 186 189 184 190 196 190 187 188 186 187 186 186 187 184 182 183 186 186 182 172 157 160 176 160 160 170 176 178 185 187 185 184 185 187 184 180 180 178 177 175 172 173 172 167 164 159 152 145 136 130 125 117 112 104 99 96 93 95 95 96 101 97 95
166 165 164 164 168 170 166 160 156 159 161 164 169 163 155 160 165 167 171 174 176 176 184 192 189 195 201 193 190 192 194 193 188 187 189 190 192 193 192 188 185 180 171 160 149 168 167 171 181 187 188 186 183 184 185 189 189 184 185 185 182 182 181 179 178 176 172 168 163 157 150 144 139 130 123 114 104 99 91 91 96 96 104 94 74
160 160 162 164 165 166 164 160 157 158 159 154 153 154 153 156 159 162 169 175 179 178 183 195 193 195 200 197 193 195 200 200 193 190 192 194 199 199 200 195 184 182 182 170 147 163 175 178 182 186 188 183 180 185 187 188 191 189 189 191 190 189 189 187 184 183 181 180 178 175 170 167 162 156 151 140 127 117 97 78 64 347 292 286 291
160 161 162 163 161 159 158 157 155 153 155 154 150 151 153 151 151 154 158 167 176 176 177 185 187 190 197 197 194 196 202 201 195 196 198 196 198 200 205 202 187 172 180 170 150 144 170 181 184 183 185 183 182 190 190 187 190 190 187 192 200 199 195 194 192 192 193 193 193 193 193 193 194 195 196 196 197 199 210 243 270 282 285 286 287
160 160 163 165 162 160 157 154 153 150 150 151 147 149 154 155 159 160 160 165 171 173 172 175 181 187 193 192 192 197 202 199 194 197 199 192 190 197 204 206 198 182 176 172 155 142 158 174 179 178 182 187 187 189 191 191 191 191 191 195 204 209 205 204 204 204 205 206 207 209 210 213 219 224 231 236 238 241 244 250 259 267 274 280 282
159 161 163 164 161 159 158 156 154 150 146 147 148 153 153 152 159 164 170 174 176 180 177 176 180 183 186 184 187 193 196 196 195 197 198 191 185 190 195 199 202 197 186 182 169 154 158 169 176 177 179 187 194 191 192 197 197 196 200 202 204 210 213 216 219 220 220 221 222 222 223 227 232 238 246 251 253 255 254 254 259 264 268 273 276
160 163 162 161 161 160 161 161 155 147 145 150 153 153 149 147 155 162 170 174 177 180 180 183 186 182 177 179 185 191 192 194 198 200 199 192 186 188 192 196 201 204 196 189 184 172 164 167 178 183 182 187 198 198 195 199 203 204 208 211 212 217 223 227 231 232 233 234 233 231 231 234 238 244 250 256 259 260 259 259 261 263 266 268 270
164 163 160 162 164 163 166 162 152 143 142 151 153 146 146 151 156 153 148 152 159 160 158 171 180 176 172 178 186 192 193 195 198 201 204 200 193 191 195 199 202 210 208 196 192 183 173 171 178 184 185 188 195 202 202 200 200 205 211 216 220 225 231 235 240 242 239 237 236 236 238 240 243 246 251 255 259 260 261 263 263 264 265 266 268
164 159 159 162 160 158 160 154 145 139 141 154 159 148 146 153 159 161 156 151 151 145 132 140 158 166 168 173 182 191 197 197 193 196 207 208 203 200 205 207 207 219 221 201 191 182 177 177 180 184 188 189 191 201 208 207 203 204 209 216 224 230 233 235 240 243 240 236 236 238 241 242 243 246 251 255 259 262 263 264 264 265 265 265 266
159 156 157 158 155 155 154 148 144 144 147 149 146 142 146 148 149 153 154 150 147 142 136 139 146 149 147 151 173 192 197 190 182 189 209 208 204 206 208 203 204 220 213 196 185 179 178 178 178 184 192 194 194 200 209 212 211 209 209 212 219 228 232 235 237 239 239 239 241 243 244 244 244 246 251 255 258 261 264 265 264 265 265 264 265
153 154 155 154 154 154 149 145 145 147 147 137 126 135 148 145 134 139 141 133 127 126 127 133 135 131 124 123 148 178 186 183 180 187 204 203 203 209 210 206 216 214 193 184 183 184 184 183 181 188 197 200 201 204 205 204 206 211 213 211 216 224 227 233 238 239 240 241 242 244 242 240 240 242 247 251 256 260 262 263 263 263 263 263 263
151 154 154 150 147 143 138 137 138 140 138 127 119 123 137 138 131 133 138 129 124 130 134 134 133 130 126 115 117 148 171 178 179 175 172 186 196 196 198 212 220 205 182 177 186 191 190 191 191 191 195 200 205 208 202 199 205 217 221 218 221 225 225 230 236 239 241 242 241 241 239 237 238 241 246 251 257 260 260 260 259 259 261 262 261
154 154 152 145 139 136 132 129 129 130 126 120 116 113 119 130 132 130 128 118 118 159 163 145 139 135 128 114 111 137 162 166 162 157 152 163 167 147 147 167 176 174 163 157 175 185 188 195 200 198 198 201 206 209 209 209 215 223 224 221 224 229 229 230 234 237 239 240 240 239 239 239 239 241 246 251 255 256 255 255 255 255 256 258 259
146 147 144 138 134 131 129 126 123 123 122 119 118 115 112 122 131 133 124 108 105 107 141 149 148 140 130 121 115 126 152 164 163 163 164 165 152 129 134 146 144 149 148 128 128 154 164 173 189 201 207 208 210 214 219 222 222 223 224 225 228 230 229 229 233 236 236 237 238 239 243 244 241 241 245 250 253 252 251 253 254 254 253 252 252
138 141 136 131 128 126 125 124 120 119 121 120 122 123 120 119 120 121 124 126 123 94 83 130 154 148 133 123 116 116 129 146 156 164 173 179 177 153 132 140 144 147 162 158 104 47 27 54 101 181 207 216 221 223 227 231 233 236 241 243 239 234 230 229 230 233 237 237 235 236 244 248 246 244 245 249 251 251 252 256 255 253 251 249 248
133 133 129 126 124 122 122 121 118 118 121 123 128 134 135 126 115 106 103 110 130 106 91 106 133 144 136 127 122 122 125 131 136 147 160 161 175 201 190 159 192 223 246 255 271 284 290 296 297 293 288 282 283 279 262 253 253 253 255 256 253 245 237 234 235 241 248 245 234 233 239 245 248 246 247 252 253 251 253 257 257 255 251 246 244
127 125 124 123 119 117 119 119 118 116 112 114 125 138 149 144 126 109 91 85 99 106 99 97 105 120 133 138 137 135 133 135 134 141 159 154 127 111 84 52 18 320 299 285 282 282 285 288 289 289 290 290 288 285 284 284 281 275 268 265 261 256 252 251 252 253 252 249 244 237 234 241 245 244 246 253 254 252 252 254 257 259 254 246 242
122 121 119 117 114 113 115 119 119 110 101 101 110 122 136 143 138 126 101 85 89 97 96 95 96 105 122 140 143 137 129 127 123 122 145 159 150 120 99 80 51 359 316 299 287 280 280 284 288 289 290 291 288 283 279 277 276 278 280 279 278 277 276 272 267 262 257 255 253 242 236 245 247 241 244 251 250 250 250 248 250 256 255 250 242
118 117 113 111 109 108 109 113 113 104 94 93 98 102 110 121 128 126 110 93 88 90 94 96 99 105 114 123 126 122 113 103 96 95 111 136 150 143 130 109 80 48 265 254 268 270 270 271 275 279 281 282 282 281 280 279 279 279 280 279 277 278 279 275 271 268 263 260 256 244 246 266 259 244 250 252 247 249 251 249 250 251 251 250 241
115 114 111 107 106 104 102 102 101 97 90 85 90 99 103 108 113 110 101 96 94 93 94 98 105 109 107 104 104 104 98 88 78 75 84 103 125 124 121 98 33 332 260 242 249 257 266 270 271 274 277 280 283 284 284 287 291 293 292 290 287 285 284 280 277 276 273 272 266 250 253 273 267 249 251 252 246 250 256 260 259 251 245 245 237
111 112 111 107 103 99 96 92 89 89 86 80 81 95 100 101 101 97 94 95 94 89 88 92 99 104 101 95 90 84 78 71 61 51 45 30 18 17 1 339 328 316 306 299 288 282 281 282 281 282 283 285 288 289 290 291 296 301 303 302 299 296 292 286 283 288 288 286 284 273 264 267 262 251 249 257 261 264 267 270 263 248 240 237 232
108 109 109 106 99 92 87 84 79 78 79 75 73 84 92 94 95 93 93 93 89 84 84 88 91 93 89 81 75 69 62 55 46 35 28 21 12 7 357 346 339 330 325 322 315 308 303 300 299 298 297 297 298 298 298 296 298 304 308 309 307 300 291 282 281 287 288 285 285 280 265 262 264 265 267 272 279 277 273 266 251 239 235 231 224
Height
830 831 833 834 835 836 837 838 839 840 841 842 843 845 847 849 850 850 851 851 852 854 853 852 852 853 855 856 858 859 859 858 858 858 857 857 858 860 861 861 862 862 863 863 863 863 864 864 864 864 864 864 864 863 863 863 863 863 863 863 863 863 863 862 862 862 862 862 862 862 862 861 861 861 861 861 861 860 860 859 859 859 858 858 858
830 831 833 834 835 836 837 838 839 840 841 842 843 845 847 848 849 850 851 851 852 853 852 851 852 854 856 857 858 859 860 859 858 858 857 857 858 860 861 861 862 863 863 863 864 864 864 864 864 864 864 864 864 864 864 864 864 864 864 863 863 863 863 863 863 863 862 862 862 862 862 862 862 861 862 862 861 861 861 861 860 860 859 859 859
829 831 832 834 835 836 837 838 839 840 841 842 844 845 847 848 849 850 851 851 852 851 851 851 852 854 856 857 858 859 859 859 859 859 858 858 859 860 861 862 862 863 863 863 864 864 864 864 864 865 865 864 864 864 864 864 864 864 864 864 864 864 863 864 863 863 863 863 863 863 863 863 862 862 862 862 862 862 862 862 861 861 861 860 860
828 830 832 833 834 835 837 838 839 840 841 842 844 846 847 849 849 850 850 851 851 850 851 851 852 854 856 857 858 858 858 858 859 859 858 858 859 861 861 862 863 863 864 864 864 865 865 865 865 865 865 865 865 865 865 865 865 865 865 865 864 864 864 864 864 864 864 864 864 864 864 864 863 863 863 863 863 863 863 862 862 862 862 862 861
827 829 831 833 834 835 836 838 839 840 841 842 844 846 847 849 849 850 850 850 850 850 851 851 853 855 857 857 858 858 857 858 859 859 858 859 860 861 862 863 863 864 864 864 864 865 866 866 866 865 865 865 865 865 865 865 865 865 866 865 865 865 865 865 865 865 865 865 865 865 865 865 865 865 864 864 864 864 863 863 863 863 863 863 862
827 829 831 832 834 835 836 837 839 840 841 842 844 845 847 848 849 849 850 851 851 851 851 852 853 856 857 857 857 857 857 858 859 859 859 859 861 862 863 863 864 864 864 864 865 865 866 866 866 866 866 866 866 866 866 866 866 866 866 866 866 866 867 867 867 867 866 866 867 866 866 866 866 866 866 866 865 865 865 864 864 864 864 864 863
826 828 830 831 833 834 836 837 838 839 841 842 843 845 847 848 848 849 850 851 851 851 851 852 854 856 857 857 857 857 857 859 859 859 860 860 862 862 863 864 864 864 864 865 865 866 867 867 867 866 866 866 867 867 867 867 867 867 867 867 867 867 868 868 868 868 868 868 868 868 868 868 868 867 867 867 867 866 866 865 865 865 865 865 864
826 828 829 830 832 834 835 837 838 839 840 842 843 845 846 847 848 849 850 850 851 851 852 852 854 856 857 858 858 858 858 859 859 859 860 861 862 863 863 864 864 865 865 865 866 866 867 867 867 867 867 867 867 867 867 867 868 867 868 868 868 868 868 869 869 869 869 869 869 868 868 868 868 868 868 868 868 867 867 866 866 866 866 866 865
825 827 828 830 831 833 834 836 838 839 840 842 843 844 846 847 847 848 849 850 851 852 852 853 854 856 858 859 859 859 859 859 859 860 861 861 862 863 863 863 864 865 865 866 866 866 867 868 868 867 867 867 867 867 867 867 868 868 869 868 868 869 869 869 869 869 869 869 869 869 869 869 869 868 868 868 868 868 868 867 867 867 867 867 866
824 826 827 829 830 831 833 835 838 839 840 842 843 844 845 846 847 848 849 850 851 852 853 854 856 857 859 860 860 860 860 860 860 860 861 861 862 862 862 863 864 865 865 866 866 867 867 868 868 867 867 867 867 867 867 867 868 868 869 868 869 869 869 870 869 869 869 869 869 869 869 869 869 868 868 868 868 868 868 868 868 868 868 868 867
823 825 827 828 829 830 832 835 838 839 840 842 843 843 844 845 846 847 849 850 851 852 853 855 857 859 859 860 860 860 861 861 861 861 861 861 861 862 862 863 864 865 866 866 867 867 867 868 867 867 867 867 867 867 867 867 868 868 868 868 869 869 869 870 870 869 869 869 869 869 869 869 869 868 868 868 868 868 868 869 869 869 869 868 868
823 825 827 828 828 829 831 835 838 839 840 841 842 843 844 845 845 847 848 850 852 852 853 854 857 859 860 859 860 861 861 861 861 861 861 860 861 861 862 863 864 864 865 866 867 867 867 867 867 867 867 867 868 868 868 868 868 868 868 868 869 869 869 869 870 870 870 870 870 870 869 869 869 869 868 868 868 868 868 869 869 869 869 869 869
823 825 827 828 829 830 833 836 837 838 839 840 842 843 843 844 845 847 848 850 851 852 853 853 855 859 860 860 861 861 862 862 862 861 861 861 861 862 862 863 863 864 865 866 867 867 867 867 867 868 868 868 868 868 868 868 868 868 868 869 869 869 869 869 870 870 870 870 870 870 870 870 870 869 869 869 868 868 869 869 869 870 870 870 870
823 825 827 829 830 831 834 836 836 837 839 840 841 842 843 844 845 846 848 849 851 852 852 853 854 856 858 860 861 862 863 862 862 862 862 862 862 862 862 862 863 864 865 866 866 867 867 867 867 868 868 868 868 868 868 868 868 868 868 869 869 870 870 870 871 871 871 871 871 871 871 871 870 870 870 869 869 869 869 869 870 870 871 871 871
822 823 825 827 830 833 834 835 835 836 838 839 840 841 842 844 844 846 847 849 850 851 852 852 853 855 856 859 860 862 863 863 863 863 863 863 863 863 863 863 863 864 865 866 866 866 867 867 867 868 868 868 868 868 869 869 869 869 869 869 870 870 871 871 871 871 871 872 872 872 872 872 871 871 871 870 870 870 869 869 870 871 871 872 871
822 823 824 826 829 832 833 834 834 835 837 838 839 840 842 843 844 845 846 848 849 851 852 852 852 853 855 857 859 862 864 864 863 864 864 864 864 863 864 863 863 864 865 866 866 866 866 867 867 868 868 868 869 869 869 869 869 870 870 870 870 871 871 871 872 872 872 872 872 872 872 872 872 872 871 871 871 871 870 870 871 872 872 872 872
822 824 825 826 829 831 832 833 834 835 836 837 838 840 841 842 843 845 845 846 847 849 851 852 852 852 853 855 858 861 863 863 863 864 864 864 864 864 864 864 864 864 865 865 866 866 866 866 867 868 869 869 869 869 870 870 870 870 870 871 871 871 871 872 872 872 872 873 873 873 873 873 872 872 872 872 872 872 872 872 872 872 872 872 873
822 824 826 827 829 830 831 832 833 834 835 837 838 839 841 842 843 844 845 846 846 848 850 851 852 852 852 853 854 855 857 860 863 864 865 864 864 864 864 864 864 864 865 865 865 866 866 867 868 869 869 869 870 870 870 871 871 871 871 871 871 871 872 872 872 873 873 873 873 873 873 873 873 873 873 873 873 873 873 873 873 873 873 873 873
821 823 825 827 828 829 830 831 832 833 835 837 838 839 840 841 843 844 844 845 846 847 849 850 851 852 852 852 852 851 852 855 858 861 863 864 863 863 863 864 864 864 865 865 865 866 867 868 869 869 870 870 870 870 871 871 871 871 871 872 871 871 872 872 873 873 873 873 873 873 874 874 874 874 874 873 873 873 873 874 873 873 873 873 873
820 822 824 826 827 828 829 830 831 833 835 836 837 839 840 841 842 843 844 845 845 846 848 849 850 850 851 852 852 852 852 853 854 856 859 862 863 863 863 864 864 864 865 865 866 866 867 868 869 870 870 870 870 870 871 871 871 872 872 872 872 872 872 873 873 873 874 874 874 874 874 874 874 874 874 874 874 874 874 874 874 874 874 874 874
820 822 824 826 827 827 828 829 830 832 834 835 837 838 839 840 841 842 843 844 845 846 847 848 849 849 850 851 852 852 853 854 855 855 856 859 862 863 863 864 864 865 865 865 866 867 868 869 869 870 870 870 870 871 871 871 872 872 872 873 873 873 873 873 874 874 874 874 874 875 875 875 875 875 874 874 874 874 874 874 874 875 875 875 875
819 822 823 825 826 827 828 829 830 832 833 835 836 837 838 839 840 841 842 844 844 845 847 848 848 849 849 850 851 851 852 853 854 855 855 857 859 861 862 863 863 864 864 865 867 868 868 869 869 870 870 870 871 871 871 872 872 872 873 873 874 874 874 874 874 874 875 875 875 875 875 875 875 875 875 875 875 875 875 875 875 875 875 875 876
818 821 822 823 824 826 827 829 830 831 833 834 835 836 837 837 839 840 842 843 844 845 846 847 848 849 849 849 849 850 850 851 852 852 854 855 857 860 862 862 862 863 864 866 867 868 868 869 869 869 870 870 871 872 872 872 872 873 873 874 875 875 875 875 875 875 875 875 876 876 876 876 876 876 876 876 876 876 876 876 876 876 876 876 876
817 819 821 822 823 825 826 828 829 831 832 833 834 835 836 837 838 839 841 842 843 844 845 846 847 848 848 849 849 849 849 850 850 851 852 853 854 858 860 861 862 863 864 865 867 868 868 869 869 869 870 871 871 872 872 873 873 873 874 874 875 875 876 876 876 876 876 876 876 876 877 876 876 877 877 877 877 877 877 877 877 877 877 877 877
815 817 819 820 822 824 826 827 829 830 831 832 833 834 835 836 837 839 840 841 842 843 844 845 846 847 847 848 849 849 849 849 850 850 851 852 854 856 858 859 861 862 864 865 867 868 869 869 869 870 870 871 871 872 873 873 873 874 874 875 876 876 876 877 877 877 877 877 877 877 877 877 877 877 877 877 878 878 878 878 877 877 877 877 877
813 815 817 819 821 823 825 827 828 829 830 831 832 833 834 835 837 838 839 840 841 842 843 844 845 846 847 847 848 848 849 849 849 850 850 851 852 854 856 859 861 862 863 865 866 867 868 869 869 870 871 871 871 872 873 874 874 874 875 875 876 876 877 877 877 878 878 878 878 878 877 877 877 877 877 877 878 878 878 878 878 878 878 877 877
811 814 816 818 820 822 824 826 827 828 829 830 831 832 834 835 836 837 838 839 840 841 843 843 844 845 846 847 847 848 848 848 848 849 849 850 851 852 853 857 861 863 863 864 865 866 867 868 870 870 870 871 871 872 873 874 874 874 875 875 876 877 877 878 878 878 878 878 878 878 878 878 877 877 877 877 878 878 878 878 878 878 878 878 877
810 813 815 817 819 821 823 825 826 827 828 829 830 831 833 834 835 836 837 838 840 841 842 843 843 844 845 846 846 847 847 847 848 849 849 850 850 851 852 853 857 860 863 864 864 865 866 867 869 870 870 870 871 872 873 874 874 874 875 875 876 877 877 878 878 879 879 879 879 879 878 878 878 878 878 878 878 878 878 878 878 878 878 878 877
810 812 814 816 819 820 822 824 825 827 828 829 830 831 832 833 834 835 836 838 839 840 841 842 843 844 844 845 846 846 846 847 847 848 849 850 850 851 852 853 853 856 860 862 863 863 865 865 867 869 870 870 870 871 873 873 874 874 875 876 876 877 878 878 879 879 879 879 879 879 879 878 878 878 878 878 878 878 878 878 878 878 878 878 878
809 812 814 816 818 820 821 823 824 826 827 828 829 830 831 832 833 834 835 837 838 839 840 841 842 843 844 845 845 845 846 846 847 847 848 849 850 851 852 853 853 853 855 859 861 861 863 864 865 866 868 869 870 871 872 873 874 874 875 876 877 877 878 878 879 879 879 879 880 879 879 879 878 878 878 878 878 878 878 878 878 878 878 878 878
809 811 814 816 817 819 820 822 824 825 826 827 828 829 830 831 832 833 834 835 837 838 839 840 841 842 843 844 844 844 845 845 846 847 847 847 849 850 851 852 853 853 853 855 858 860 860 861 863 864 865 867 869 870 872 873 874 875 875 876 877 878 878 878 879 879 879 880 880 880 879 879 879 879 878 878 878 878 878 878 878 878 878 878 878
808 811 813 815 817 818 820 821 823 824 826 826 827 828 829 830 830 832 833 834 835 836 838 839 840 841 841 842 843 843 844 845 845 846 846 847 848 849 850 851 851 852 853 853 855 858 859 859 861 863 864 866 868 869 871 872 873 874 875 876 877 877 878 878 879 879 879 879 880 880 879 879 879 879 878 878 878 878 878 878 878 878 878 878 877
807 810 812 814 816 818 819 821 822 824 825 826 827 828 828 829 830 831 832 833 834 835 836 838 839 840 840 840 842 842 843 844 844 845 845 846 847 847 848 849 850 851 851 852 853 856 859 859 860 862 864 865 867 868 870 871 873 874 875 876 877 877 877 878 878 878 878 879 879 879 879 879 878 878 878 878 877 877 877 877 878 878 877 877 877
807 809 812 813 815 817 818 820 821 823 824 825 826 827 828 829 829 830 831 832 833 834 835 837 838 838 839 839 840 841 842 843 844 844 844 845 845 846 847 847 849 850 851 851 852 854 857 859 859 861 863 864 865 867 869 870 871 872 874 874 875 876 877 877 877 877 877 877 877 877 877 877 877 877 877 877 877 876 876 877 877 877 877 876 876
807 809 811 813 815 816 818 819 820 822 823 824 825 826 827 828 829 829 831 832 833 834 834 836 837 837 838 838 839 840 841 842 843 843 843 844 844 845 846 846 848 849 851 851 851 853 855 858 859 860 862 863 864 865 867 869 870 871 872 873 874 875 875 876 876 876 876 876 876 876 876 876 876 876 876 876 876 875 875 875 875 875 876 876 875
807 809 811 812 814 816 817 818 820 821 823 824 825 826 827 827 828 829 830 831 832 833 834 835 836 837 837 838 838 839 840 840 841 842 843 843 844 844 845 846 847 848 850 850 850 851 853 856 858 859 860 862 863 864 866 868 869 870 871 871 872 873 873 874 874 874 874 874 874 874 874 874 874 874 874 874 874 874 874 874 874 874 874 874 874
807 809 811 812 813 815 816 818 819 821 822 824 824 825 826 827 828 829 830 831 831 833 834 834 835 836 837 837 837 838 838 839 840 842 843 843 843 843 844 845 846 847 849 849 849 850 851 854 857 859 860 861 862 863 864 866 868 869 870 870 871 871 871 872 872 872 872 872 872 872 872 872 872 872 872 872 872 872 872 872 872 872 872 872 872
807 809 810 812 813 814 816 817 819 820 822 823 824 824 826 827 828 829 830 830 831 832 833 834 835 836 836 836 836 836 837 838 839 840 841 842 842 843 844 845 846 847 847 848 848 849 850 852 855 857 859 860 861 862 863 864 866 867 868 869 869 869 869 869 869 869 870 870 870 870 870 870 870 870 870 870 871 871 871 871 871 870 870 870 870
806 808 810 811 813 814 815 816 818 819 821 822 823 824 825 826 827 828 829 830 831 832 833 833 834 835 835 836 836 836 836 837 838 839 840 841 841 842 843 844 845 846 846 846 847 848 850 852 854 856 857 859 860 860 861 862 864 865 866 866 866 866 866 866 866 867 867 867 867 867 867 867 868 868 868 868 868 868 868 868 868 868 868 868 868
806 808 810 811 811 813 814 815 817 819 820 822 823 824 825 826 827 828 829 831 831 832 833 833 834 835 835 836 835 835 836 836 837 839 839 840 841 841 842 843 844 845 845 845 847 848 850 851 853 855 856 857 858 859 860 862 863 863 863 863 863 862 863 862 862 863 863 863 864 864 864 864 865 865 865 865 865 865 865 865 865 865 865 865 865
806 808 810 810 810 812 813 815 816 818 820 821 822 824 825 826 827 828 829 831 831 832 833 833 834 834 835 835 835 835 836 836 838 839 839 840 840 841 842 842 843 844 845 846 847 848 849 850 852 853 854 855 857 858 859 859 860 860 860 861 860 860 860 860 859 859 860 860 860 860 860 861 861 861 862 862 862 862 862 862 862 862 862 862 862
806 808 809 809 810 811 813 814 816 818 819 821 823 824 825 826 827 828 829 830 831 832 833 833 833 834 835 835 835 835 836 837 838 839 839 840 840 841 842 842 842 843 844 846 847 848 849 850 851 852 853 854 854 855 856 856 856 856 857 858 858 858 859 858 858 857 857 857 857 857 857 858 858 858 858 858 858 859 859 859 859 859 859 859 859
805 807 808 809 810 811 813 814 816 817 819 821 823 824 825 826 827 828 829 830 831 832 833 833 833 834 834 835 835 836 836 837 838 839 840 840 840 841 842 842 842 843 844 845 847 848 849 850 851 851 852 852 853 854 854 854 854 855 855 856 856 856 857 856 856 855 854 855 855 854 854 855 854 854 854 854 855 855 855 855 855 856 856 856 856
805 808 810 810 810 811 813 814 816 818 819 821 822 824 825 826 827 828 830 831 832 832 833 832 833 834 834 835 835 836 837 838 838 839 840 840 841 841 842 842 843 843 844 845 846 847 848 849 849 850 851 852 852 853 853 853 853 854 854 855 855 854 854 853 852 851 851 852 852 851 850 851 851 850 849 850 851 851 852 852 852 853 853 853 853
804 808 810 811 811 812 813 815 817 818 820 821 823 824 826 827 828 829 830 831 832 833 833 833 834 834 835 835 835 836 837 838 839 839 839 840 841 841 842 842 843 844 844 845 846 846 847 847 848 849 850 850 851 851 852 852 852 852 852 852 852 851 850 849 848 848 848 848 848 847 846 847 848 846 845 846 847 847 848 849 849 849 849 849 850
804 808 810 811 812 813 814 815 817 819 820 822 823 824 826 827 828 829 831 832 832 833 833 833 834 835 835 836 836 837 838 838 839 839 839 840 841 841 842 842 843 844 844 845 846 846 846 847 847 848 848 849 850 850 851 851 850 850 850 849 849 848 847 846 845 845 846 845 845 844 842 842 844 842 841 842 843 843 845 846 845 845 845 845 846
805 809 811 812 812 814 815 816 818 819 821 822 823 825 826 827 828 829 831 832 833 833 833 833 834 835 836 836 836 837 838 838 839 839 839 840 840 841 841 842 842 843 843 844 845 845 845 846 846 846 847 847 848 849 849 849 849 849 848 847 847 846 845 844 843 843 843 843 843 841 838 838 839 838 837 838 839 840 841 843 843 842 842 842 843
807 810 811 813 814 815 816 817 819 820 822 823 824 825 826 827 828 829 830 832 832 833 833 833 834 835 836 836 837 837 838 839 839 840 840 840 840 841 841 842 842 843 843 844 844 844 844 845 845 845 845 845 846 846 846 847 846 846 846 844 844 844 843 842 841 840 841 841 840 840 838 838 838 837 836 837 837 837 838 839 840 840 839 839 839
809 811 812 814 815 816 817 819 820 821 822 824 825 826 827 828 828 829 830 831 831 832 833 834 834 835 836 836 837 837 838 839 840 840 841 841 841 841 841 842 842 842 843 843 844 844 844 844 844 844 844 844 844 844 844 844 844 844 843 841 841 841 840 839 838 838 838 839 838 838 837 836 835 835 835 835 834 833 834 835 836 837 836 836 836
810 812 813 815 816 818 819 820 822 822 823 825 826 826 827 828 829 830 830 831 831 833 834 834 835 835 836 836 836 837 838 839 840 840 840 840 840 841 841 841 842 842 842 842 842 842 842 843 843 843 843 843 843 842 842 842 842 841 840 839 838 838 837 837 836 835 834 834 836 837 835 833 833 833 833 833 830 828 829 830 832 834 834 834 834
811 813 814 815 817 818 820 821 823 824 825 827 827 827 828 829 830 831 831 831 832 834 834 835 836 836 836 837 837 838 838 839 840 840 840 840 840 841 841 841 842 842 842 842 842 841 841 841 841 841 841 841 841 841 840 840 840 840 838 837 837 836 835 834 833 833 831 830 832 834 833 831 832 833 833 833 830 827 828 828 829 831 831 832 833